Track ELEKTRON 3 now! 10-day predictions ELEKTRON 3 is classified as:
1 00829U 64038A 21107.53097668 -.00000006 00000-0 14879-4 0 9995 2 00829 60.8127 275.9688 2970815 206.9560 134.0360 9.14187435842373